Regional Weather Roundup
Issued by NWS

Home | Current Version | Previous Version | Text Only | Print | Product List | Glossary On
Versions: 1 2 3 4 5 6 7 8 9 10 11 12 13 14 15 16 17 18 19 20 21 22 23 24 25 26 27 28 29 30 31 32 33 34 35 36 37 38 39 40 41 42 43 44 45 46 47 48 49 50
000
ASUS44 KBMX 202310
RWRAL

ALABAMA REGIONAL WEATHER ROUNDUP
NATIONAL WEATHER SERVICE BIRMINGHAM AL
600 PM CDT SUN MAY 20 2018

NOTE: "FAIR" INDICATES FEW OR NO CLOUDS BELOW 12,000 FEET
WITH NO SIGNIFICANT WEATHER AND/OR OBSTRUCTIONS TO VISIBILITY.

THE REMARK "TC" DENOTES TEMPERATURE IN DEGREES CELSIUS.

ALZ001>011-014-016>018-020-210000-
NORTH ALABAMA

CITY           SKY/WX    TMP DP  RH WIND       PRES   REMARKS
MUSCLE SHOALS  NOT AVBL
HUNTSVILLE     PTSUNNY   76  65  68 CALM      30.07S
DECATUR        LGT RAIN  71  67  87 VRB5      30.07F
HALEYVILLE       N/A    N/A N/A N/A MISG        N/A
GADSDEN        FAIR      75  70  84 CALM      30.06F
$$

ALZ012-013-022-023-030>036-040>044-210000-
WEST CENTRAL ALABAMA

CITY           SKY/WX    TMP DP  RH WIND       PRES   REMARKS
TUSCALOOSA     FAIR      85  68  56 NE5       30.00S
DEMOPOLIS      FAIR      91  67  45 CALM      29.98S HX  94
$$

ALZ015-024>026-033>036-041>044-210000-
CENTRAL ALABAMA

CITY           SKY/WX    TMP DP  RH WIND       PRES   REMARKS
BIRMINGHAM     PTSUNNY   88  66  48 E7        30.06R HX  90
MONTGOMERY     FAIR      84  72  67 S7        30.01F
SHELBY CO ARPT FAIR      84  66  54 CALM      30.02R
MAXWELL AFB    FAIR      84  72  66 S6        30.00  HX  90
GREENVILLE     FAIR      84  68  58 VRB6      30.02
SELMA          FAIR      88  72  58 SE8G16    30.00R HX  94
PRATTVILLE     FAIR      84  71  66 SE7       30.01R
BESSEMER       FAIR      85  72  65 NW6       30.04  HX  91
TALLADEGA      FAIR      86  70  59 E6        30.04S HX  90
PELL CITY      CLEAR     81  77  89 CALM      30.04R
MARION         MOCLDY    83  69  64 CALM      29.99R
SYLACAUGA      FAIR      78  71  78 CALM      30.04F
$$

ALZ019-021-028-029-037-038-045>048-210000-
EAST CENTRAL ALABAMA

CITY           SKY/WX    TMP DP  RH WIND       PRES   REMARKS
ANNISTON       FAIR      83  71  67 E5        30.05R
ALEXANDER CITY LGT RAIN  84  72  67 E3        30.04S
AUBURN         FAIR      79  70  74 SE12G18   30.08
$$

ALZ051>064-210000-
SOUTHWEST ALABAMA

CITY           SKY/WX    TMP DP  RH WIND       PRES   REMARKS
MOBILE         FAIR      86  71  60 SE14      30.01  HX  91
BROOKLEY FIELD FAIR      84  73  69 SE10      30.02S HX  90
EVERGREEN      TSTM      74  70  87 W3        30.04R
$$

ALZ049-050-065>069-210000-
SOUTHEAST ALABAMA

CITY           SKY/WX    TMP DP  RH WIND       PRES   REMARKS
DOTHAN         FAIR      76  66  71 E9        30.08
OZARK          FAIR      73  71  92 CALM      30.04F
TROY           FAIR      73  70  90 E5        30.04F
EUFAULA        FAIR      78  67  68 SE9       30.05
$$



USA.gov is the U.S. government's official web portal to all federal, state and local government web resources and services.